Regional Weather Roundup
Issued by NWS

Home | Current Version | Previous Version | Graphics & Text | Print | Product List | Glossary On
Versions: 1 2 3 4 5 6 7 8 9 10 11 12 13 14 15 16 17 18 19 20 21 22 23 24 25 26 27 28 29 30 31 32 33 34 35 36 37 38 39 40 41 42 43 44 45 46 47 48 49 50
000
ASUS43 KLMK 221602
RWRKY
KENTUCKY REGIONAL WEATHER ROUNDUP
NATIONAL WEATHER SERVICE LOUISVILLE KY
1200 PM EDT TUE APR 22 2014

NOTE "FAIR" INDICATES FEW OR NO CLOUDS BELOW 12,000 FEET
WITH NO SIGNIFICANT WEATHER AND/OR OBSTRUCTIONS TO VISIBILITY.

KYZ001>023-026-027-061>063-070>075-221700-
WESTERN AND SOUTH CENTRAL KENTUCKY

CITY           SKY/WX    TMP DP  RH WIND       PRES   REMARKS
PADUCAH        SUNNY     69  51  52 N12       29.95R
HENDERSON      SUNNY     64  48  55 N10G18    29.93R
OWENSBORO      SUNNY     67  58  72 NW14      29.91S
HOPKINSVILLE   PTSUNNY   69  63  83 NW9       29.91R
BOWLING GREEN  PTSUNNY   71  59  65 NW6       29.89S
GLASGOW        NOT AVBL
$$

KYZ024-025-028>034-038-045-046-053-221700-
NORTH CENTRAL KENTUCKY

CITY           SKY/WX    TMP DP  RH WIND       PRES   REMARKS
LOUISVILLE/SDF PTSUNNY   69  57  65 N9        29.86S
LOUISVILLE/LOU CLOUDY    69  56  62 W9        29.87R
FORT KNOX      PTSUNNY   69  58  67 W13       29.86F
$$

KYZ035>037-039>044-047>052-055>060-089>105-221700-
NORTHEAST KENTUCKY

CITY           SKY/WX    TMP DP  RH WIND       PRES   REMARKS
LEXINGTON      CLOUDY    66  57  72 W13       29.86S
COVINGTON      CLOUDY    64  55  72 W15       29.83S
FRANKFORT      CLOUDY    64  56  75 VRB7      29.85R
$$

KYZ054-064>069-076>088-106>120-221700-
SOUTHEAST KENTUCKY

CITY           SKY/WX    TMP DP  RH WIND       PRES   REMARKS
JACKSON        CLOUDY    63  56  78 CALM      29.86S
LONDON         CLOUDY    63  57  81 SW9       29.88S
SOMERSET       NOT AVBL
MIDDLESBORO    NOT AVBL
MONTICELLO     CLOUDY    91  32  12 W8        29.91R HAZE
$$




USA.gov is the U.S. government's official web portal to all federal, state and local government web resources and services.